Regional Weather Roundup
Issued by NWS

Home | Current Version | Previous Version | Text Only | Print | Product List | Glossary On
Versions: 1 2 3 4 5 6 7 8 9 10 11 12 13 14 15 16 17 18 19 20 21 22 23 24 25 26 27 28 29 30 31 32 33 34 35 36 37 38 39 40 41 42 43 44 45 46 47 48 49 50
000
ASHW40 PHFO 031610
RWRHI

WEATHER ROUNDUP FOR HAWAII
NATIONAL WEATHER SERVICE HONOLULU HI
600 AM HST SUN MAY 03 2015

THIS IS AN AUTOMATED REPORT THAT HAS NOT BEEN QUALITY CONTROLLED.

NOTE..."FAIR" INDICATES FEW OR NO CLOUDS BELOW 12,000 FEET WITH NO
SIGNIFICANT WEATHER AND/OR OBSTRUCTIONS TO VISIBILITY.

* - THESE SITES REPORT LIMITED FIELDS

HIZ001>004-031700-
KAUAI-NIIHAU-

CITY           SKY/WX    TMP DP  RH WIND       PRES   REMARKS
LIHUE APT      CLOUDY    74  64  71 E15       30.03R
PORT ALLEN*      N/A     72 N/A N/A NE10        N/A
POIPU*           N/A     73 N/A N/A NE8G16      N/A
PRINCEVILLE*     N/A     70 N/A N/A MISG        N/A
KOKOLE POINT*  NOT AVBL
MOLOAA DAIRY*  NOT AVBL
WAIMEA HTS*    NOT AVBL
PUU OPAE*      NOT AVBL
PUU LUA*       NOT AVBL
MAKAHA RIDGE*  NOT AVBL
$$

HIZ005>011-031700-
OAHU-

CITY           SKY/WX    TMP DP  RH WIND       PRES   REMARKS
HONOLULU       PTCLDY    69  61  75 NE9       30.01R
KALAELOA       CLEAR     67  59  75 CALM      30.02R
KANEOHE MCB    CLEAR     74  62  66 E12G22    30.00R
WHEELER FIELD  FAIR      63  58  86 VRB2      30.01
BELLOWS*       NOT AVBL
KAHUKU*        NOT AVBL
WHEELER*       NOT AVBL
WAIANAE HARBOR NOT AVBL
DILLINGHAM*      N/A     63  59  88 MISG        N/A
KAHUKU TRN*      N/A     70  59  68 E8G18       N/A
KAWAILOA*        N/A     66  59  77 E9G22       N/A
KII*             N/A     73  63  68 E17G23      N/A
MAKUA RANGE*     N/A     73  59  60 E7G16       N/A
OAHU FOREST NW NOT AVBL
SCHOFIELD BRK*   N/A     61  57  88 MISG        N/A
SCHOFIELD S*   NOT AVBL
WAIANAE VLY*   NOT AVBL
KUAOKALA*      NOT AVBL
HONOULIUULI*   NOT AVBL
MOKUOLOE IS*   NOT AVBL
PALEHUA*       NOT AVBL
WAIAWA PHB*    NOT AVBL
$$

HIZ012>013-031700-
MOLOKAI-

CITY           SKY/WX    TMP DP  RH WIND       PRES   REMARKS
MOLOKAI AIRPT  PTCLDY    70  60  70 NE13G22   30.01S
KALAUPAPA      NOT AVBL
MAKAPULAPAI*   NOT AVBL
MOLOKAI 1*     NOT AVBL
PUU ALII*      NOT AVBL
$$

HIZ016-031700-
KAHOOLAWE-

CITY           SKY/WX    TMP DP  RH WIND       PRES   REMARKS
KAHOOLAWE*     NOT AVBL
HAKIOAWA*      NOT AVBL
HONOKANAIA*      N/A     71  62  72 N5G16     30.01S
KANELOA*         N/A    N/A N/A N/A MISG      29.22R
KEALIALALO*    NOT AVBL
LUA MAKIKA*    NOT AVBL
$$

HIZ014>015-031700-
LANAI-

CITY           SKY/WX    TMP DP  RH WIND       PRES   REMARKS
LANAI CITY     FAIR      66  61  84 NE17G28   30.04R
LANAI 1*       NOT AVBL
$$

HIZ017>028-031700-
MAUI-

CITY           SKY/WX    TMP DP  RH WIND       PRES   REMARKS
KAHULUI        PTCLDY    70  64  81 NE7       30.01R
KAPALUA-W MAUI PTCLDY    70  63  78 NE14G22   30.01
HANA AIRPORT   MOCLDY    72  63  73 E8        30.06R
HANA*          NOT AVBL
HALEAKALA SUMM   N/A     41   0  17 N9          N/A
MAALAEA BAY*   NOT AVBL
HALEAKALA*     NOT AVBL
KAUPO GAP*     NOT AVBL
KULA 1*          N/A    N/A N/A N/A E6          N/A
$$

HIZ023>026-031700-
BIG ISLAND OF HAWAII COAST AND LOWER SLOPES-

CITY           SKY/WX    TMP DP  RH WIND       PRES   REMARKS
KAILUA KONA    CLEAR     73  62  68 E7        29.95R
HILO           LGT RAIN  67  63  87 W7        30.02R
HONOKAA*       NOT AVBL
KAWAIHAE MWT*  NOT AVBL
KAWAIHAE*        N/A     73 N/A N/A NE2         N/A
SOUTH POINT*   NOT AVBL
UPOLU AIRPORT* NOT AVBL
KAMUELA*       SUNNY     59  55  88 NE16      30.06S
HAKALAU*         N/A     46  46 100 SW2         N/A
KALOKO-HONOKO* NOT AVBL
PALI 2*          N/A     61  55  82 VRB8        N/A
KEALAKOMO*       N/A     70  64  83 NE3G9       N/A
KAUPULEHU*     NOT AVBL
KAPAPALA*        N/A     61  58  91 VRB2        N/A
LOWER KAHUKU*  NOT AVBL
PUHE CS*       NOT AVBL
PUHO CS*       NOT AVBL
PTA KEAMUKU*     N/A     54  45  71 CALM        N/A
WAIKOLOA*      NOT AVBL
$$

HIZ027>028-031700-
BIG ISLAND OF HAWAII INTERIOR AND SUMMMITS-

CITY           SKY/WX    TMP DP  RH WIND       PRES   REMARKS
BRADSHAW FIELD CLOUDY    41  30  65 SE6       30.25S
MK VISITOR CEN NOT AVBL
MAUNA KEA*       N/A     37 -27   5 CALM        N/A
MAUNA LOA*       N/A     37 -18   8 MISG        N/A
MAUNA LOA 1*   NOT AVBL
PTA KIPUKA*      N/A     43  39  87 E3G9        N/A
PTA RANGE 17*    N/A     48  46  93 E6G12       N/A
PTA WEST*        N/A     73  68  83 E10         N/A
NENE CABIN*    NOT AVBL
AHUMOA*        NOT AVBL
PTA PORTABLE*  NOT AVBL
PUU MALI*        N/A    N/A N/A N/A S5G10       N/A
$$

HIC003-031700-
NORTHWEST ISLANDS-

CITY           SKY/WX    TMP DP  RH WIND       PRES   REMARKS
MIDWAY ISLAND  CLEAR     68  68 100 CALM      30.00F
MIDWAY NOS*    NOT AVBL
FRENCH FRIGATE NOT AVBL
$$

PHZ110>124-180-031700-
BUOY REPORTS

STATION/POSITION TIME  TEMP    WIND        PRES    WAVE   SWELL
                       AIR SEA DIR/SP/G            HT/PER HT/DIR
                 (UTC) (F)     (DEG/KT/KT) (MB)    (FT/S) (FT/D)
BUOY 51001       NOT AVBL
BUOY 51101       1600   74 76   90/ 14/ 14 1017.0R   6/ 9   5/ 70
BUOY 51100       NOT AVBL
BUOY 51002       1600   77 79   90/ 17/ 19 1013.4R   8/ 9   5/100
BUOY 51003       1500   77 79   80/ 14/ 17 1014.4F   7/ 8   5
BUOY 51004       1501   76 77   70/ 17/ 23 1014.2    8/ 9   7/ 50
BARBERS PT BUOY  NOT AVBL
WAIMEA BAY BUOY  1600      77                N/A     5/ 9
KAILUA BAY BUOY  1600      77                N/A     7/ 9   2/ 50
LANAI BUOY       NOT AVBL
BARBERS PT 2     1600      77                N/A     4/14   2/190
PAUWELA MAUI     1600      76                N/A     7/ 9   2/ 60
HILO             1600      77                N/A     8/ 9   2/ 80
KANEOHE BAY BUOY 1600      75                N/A     6/ 9   2/ 50
HANALEI KAUAI    1600      77                N/A     7/ 9   2/ 30
KAHULUI HARBOR   1600   73 77   40/  6/  9 1016.0F
HONOLULU HARBOR  1600   74 78   80/  3/ 10 1016.2R
KILO NALU        NOT AVBL
HILO HARBOR      NOT AVBL
MOKUOLOE         1600   74 77   90/ 12/ 19 1016.4S
NAWILIWILI       1600   74 78   80/ 15/ 16 1016.3S
WHOTS BUOY       NOT AVBL
BUOY 51028       NOT AVBL
$$

......................KEY........................................
  SKY/WX - SKY CONDITIONS/PRESENT WEATHER
  TMP    - TEMPERATURE IN FAHRENHEIT
  DWPT   - DEWPOINT IN FAHRENHEIT
  RH     - RELATIVE HUMIDITY IN PERCENT
  WIND   - DIRECTION AND SPEED /MPH FOR ISLANDS...KTS FOR BUOYS/
  PRES   - MEAN SEA LEVEL PRESSURE IN INCHES OF HG
  VSB    - VISIBILITY IN MILES
  HX     - HEAT INDEX
  WCI    - WIND CHILL INDEX
  VRB    - VARIABLE WIND DIRECTION
  N/A    - NOT AVAILABLE



USA.gov is the U.S. government's official web portal to all federal, state and local government web resources and services.